Temp
90 89 88 88 87 86 87 85 83 83 84 84 83 81 81 81 80 77 76 76 77 76 78 78 78 78 79 80 81 81 80 79 74 73 71 68 70 70 78 82 82 84 80
89 90 88 86 85 85 83 84 86 83 82 83 82 79 80 80 79 76 77 77 76 75 76 76 77 80 77 78 79 80 79 81 77 70 68 68 69 72 80 82 86 92 86
88 89 89 86 81 82 83 84 84 80 83 82 82 79 78 81 78 79 77 76 76 76 77 76 76 77 77 80 79 76 79 80 72 71 71 68 74 77 79 81 82 82 88
87 83 83 83 81 86 84 82 81 81 82 81 81 79 75 78 78 76 75 75 76 78 79 78 78 77 77 76 77 77 77 76 75 75 78 79 80 80 80 78 77 79 79
84 82 80 83 84 85 83 82 79 80 80 80 78 76 72 72 80 78 76 77 77 77 77 76 79 79 77 77 79 77 77 76 74 74 77 77 77 76 76 77 75 77 78
82 82 84 85 85 84 84 84 78 77 76 74 73 74 73 74 67 68 73 74 76 75 74 77 80 76 76 75 75 71 75 76 76 76 76 75 76 77 78 75 75 73 74
81 81 81 82 82 81 83 82 81 77 78 75 75 73 72 70 65 66 69 74 73 74 75 75 77 85 76 79 70 71 71 72 72 77 74 76 76 78 78 76 75 75 75
79 79 80 80 79 80 79 79 80 80 80 79 77 77 76 70 66 66 68 73 75 74 75 74 77 78 77 77 77 75 78 79 77 79 77 78 80 80 80 79 77 77 76
79 79 79 79 76 78 77 77 77 78 79 78 79 79 78 76 65 65 67 71 73 75 75 77 75 75 71 69 74 75 75 79 76 72 73 77 76 77 75 78 75 74 73
78 79 79 78 77 76 76 75 76 77 77 80 78 78 76 77 68 63 67 70 69 70 75 75 68 73 68 66 71 72 72 76 77 80 72 71 70 73 68 77 77 73 74
79 78 77 77 76 76 75 75 75 75 75 75 76 78 78 77 77 61 61 71 70 70 70 75 78 64 62 64 64 71 71 74 76 74 75 74 76 76 78 76 77 77 75
78 77 75 75 77 78 74 74 74 73 72 72 74 77 79 78 70 61 60 63 70 72 73 76 79 67 62 61 64 67 66 68 74 73 73 72 73 75 78 77 77 78 79
73 74 74 73 73 73 71 72 73 73 73 73 75 76 78 80 80 66 59 61 64 73 77 73 65 61 59 60 62 64 64 71 72 73 76 76 79 81 80 77 77 76 76
71 69 71 71 71 71 72 75 74 74 74 75 76 76 77 79 80 80 70 65 62 65 70 70 70 66 65 68 67 64 69 72 76 76 77 79 81 79 76 77 74 73 71
66 69 71 71 70 71 73 75 75 75 75 75 76 77 77 76 71 59 61 74 74 68 68 73 73 72 72 71 72 73 72 74 76 78 78 78 79 78 73 75 75 73 71
67 69 72 72 70 68 72 72 63 61 60 59 54 60 74 64 52 50 48 50 54 55 67 73 72 72 72 72 72 73 76 75 77 76 78 75 75 75 73 74 73 72 70
63 64 64 63 70 69 68 69 69 71 55 54 54 55 52 57 50 47 48 51 50 55 69 73 72 72 71 71 72 73 73 73 73 73 74 77 78 77 72 72 72 71 70
64 59 62 65 67 68 69 70 69 68 72 72 59 55 56 51 49 46 47 52 63 60 69 73 73 75 76 76 76 76 76 73 71 66 66 70 75 76 74 73 73 73 72
62 62 63 64 66 67 69 69 71 71 69 72 72 67 59 46 44 45 46 65 70 73 75 73 73 76 78 78 77 77 77 75 72 69 70 69 72 73 73 75 74 66 69
66 62 62 66 67 67 68 68 69 69 71 72 73 73 69 60 63 64 60 64 70 73 75 74 74 74 76 78 78 78 78 75 75 72 72 71 72 71 71 75 75 73 72
65 66 65 66 67 69 69 69 68 68 70 71 69 73 61 69 69 70 72 70 71 74 75 77 77 76 77 79 78 79 79 79 76 75 74 73 73 71 70 70 73 75 72
62 65 66 66 66 66 66 64 65 66 67 67 71 74 57 65 70 72 71 71 75 76 78 77 78 80 81 80 79 80 80 80 79 77 74 74 73 73 73 70 71 79 74
59 65 68 69 68 60 61 62 62 63 68 70 74 75 77 75 77 75 79 77 76 75 78 77 78 79 81 81 82 81 80 81 81 80 78 75 73 72 71 69 68 69 76
57 61 68 69 70 67 68 63 62 63 69 76 75 75 73 77 74 75 80 82 79 81 81 79 78 79 79 79 80 81 81 82 82 82 81 79 77 69 71 69 69 67 69
61 65 68 67 66 66 67 67 67 68 69 73 75 75 77 73 76 79 78 71 68 70 79 77 81 80 80 79 79 79 70 56 67 64 75 76 75 76 73 70 69 68 68
53 54 55 56 57 59 61 62 63 62 66 70 73 70 68 72 78 74 68 66 67 73 77 75 76 77 77 79 77 67 48 43 57 45 71 74 73 72 71 71 69 68 70
MSLP
1006.89 1007.03 1007.29 1007.50 1008.09 1008.39 1008.45 1008.48 1008.67 1008.91 1009.17 1009.32 1009.56 1009.61 1009.90 1010.16 1010.44 1010.57 1010.83 1011.01 1011.27 1011.23 1011.22 1011.54 1011.56 1011.67 1011.61 1011.37 1011.32 1011.69 1011.94 1012.42 1012.99 1014.30 1014.40 1013.80 1013.75 1014.08 1013.78 1013.76 1013.21 1012.88 1012.42
1006.59 1006.64 1007.00 1007.30 1007.75 1007.87 1008.22 1008.25 1008.62 1008.61 1008.66 1009.32 1009.60 1009.68 1009.57 1009.88 1010.09 1010.30 1010.36 1010.44 1010.64 1010.73 1010.75 1011.00 1011.07 1011.35 1011.42 1011.25 1011.32 1011.35 1011.96 1012.12 1013.11 1014.23 1015.14 1014.57 1013.86 1013.72 1013.45 1012.50 1012.24 1011.91 1011.62
1006.99 1006.75 1006.79 1006.90 1007.41 1007.88 1008.08 1008.06 1008.45 1008.79 1008.83 1009.14 1009.17 1009.40 1009.36 1009.26 1009.42 1009.48 1009.77 1009.90 1009.97 1010.16 1010.17 1010.41 1010.51 1010.96 1010.92 1010.79 1010.94 1011.25 1011.92 1012.09 1012.14 1013.18 1013.90 1014.12 1012.69 1012.49 1012.26 1011.90 1011.81 1011.86 1011.63
1007.15 1007.05 1007.11 1007.16 1007.41 1007.65 1007.98 1008.06 1008.32 1008.32 1008.53 1008.73 1008.67 1008.80 1009.17 1009.43 1009.73 1009.70 1009.60 1009.70 1009.67 1009.60 1009.55 1009.78 1009.85 1009.99 1010.34 1010.37 1010.45 1010.71 1011.31 1011.76 1012.23 1012.40 1012.45 1012.57 1012.17 1011.35 1011.49 1011.87 1011.91 1011.74 1012.02
1007.63 1007.53 1007.46 1007.39 1007.47 1007.47 1007.78 1007.83 1008.09 1008.12 1008.10 1008.35 1008.13 1007.90 1008.18 1008.18 1009.86 1009.49 1009.15 1009.22 1009.36 1009.34 1009.08 1009.22 1009.31 1009.52 1009.64 1009.82 1009.99 1010.09 1010.80 1011.33 1011.92 1012.14 1012.03 1011.79 1011.50 1011.42 1011.48 1011.57 1011.74 1011.36 1011.69
1008.17 1007.92 1007.77 1007.69 1007.64 1007.58 1007.57 1007.54 1007.88 1008.00 1008.14 1008.69 1008.57 1008.56 1008.68 1008.93 1009.40 1010.61 1008.98 1009.04 1008.93 1009.09 1008.78 1008.68 1008.53 1008.97 1009.23 1009.43 1009.50 1009.91 1009.92 1010.36 1010.68 1011.14 1011.26 1011.23 1011.17 1011.30 1011.37 1011.56 1011.35 1011.43 1011.35
1008.40 1008.35 1008.19 1008.03 1007.88 1007.71 1007.48 1007.38 1007.47 1007.59 1007.61 1007.97 1007.93 1007.93 1008.18 1008.67 1008.46 1009.22 1010.14 1009.45 1008.86 1008.85 1008.68 1008.34 1008.43 1008.66 1009.13 1009.31 1009.30 1009.53 1009.65 1009.88 1010.10 1010.43 1010.87 1010.57 1010.50 1010.50 1010.73 1011.01 1011.07 1010.95 1010.84
1008.15 1008.27 1008.17 1008.07 1007.91 1007.69 1007.52 1007.35 1007.20 1007.08 1006.89 1006.95 1007.00 1006.73 1006.82 1007.43 1007.68 1007.47 1007.76 1009.75 1009.21 1008.41 1008.51 1008.40 1008.28 1008.36 1008.73 1008.92 1009.10 1009.33 1009.16 1009.39 1009.67 1010.05 1010.28 1010.32 1010.09 1010.18 1010.39 1010.59 1010.75 1010.91 1010.79
1007.63 1007.69 1007.76 1007.82 1007.68 1007.57 1007.34 1007.25 1007.04 1006.97 1006.67 1006.44 1006.32 1006.07 1006.28 1006.37 1007.12 1007.44 1007.63 1007.75 1008.93 1008.89 1008.09 1008.00 1008.31 1008.19 1008.42 1008.85 1009.28 1009.38 1009.13 1008.90 1008.85 1008.94 1009.17 1009.28 1009.46 1009.66 1009.91 1010.39 1010.62 1010.78 1010.68
1007.44 1007.33 1007.32 1007.32 1007.32 1007.27 1007.13 1006.92 1006.81 1006.65 1006.48 1006.17 1005.98 1005.46 1005.12 1005.37 1005.61 1006.78 1007.68 1007.49 1006.98 1008.02 1008.31 1007.83 1007.60 1007.81 1008.11 1008.51 1008.88 1009.00 1009.04 1008.77 1008.73 1008.75 1009.36 1009.45 1009.54 1009.75 1009.91 1010.14 1010.17 1010.33 1010.30
1006.71 1006.82 1006.91 1006.89 1006.94 1006.83 1006.67 1006.47 1006.33 1006.18 1006.01 1005.82 1005.54 1005.24 1004.94 1004.75 1004.92 1005.24 1005.51 1005.48 1005.76 1006.87 1006.45 1006.65 1006.24 1006.86 1007.35 1007.58 1008.01 1008.12 1007.91 1008.14 1008.17 1008.43 1008.59 1008.73 1008.91 1009.20 1009.33 1009.40 1009.51 1009.62 1009.50
1005.98 1006.09 1006.26 1006.33 1006.33 1006.13 1006.04 1005.79 1005.71 1005.63 1005.41 1005.20 1005.06 1004.58 1004.41 1004.11 1004.02 1004.59 1004.62 1004.73 1004.64 1005.33 1005.46 1005.18 1004.64 1004.95 1005.66 1006.24 1006.85 1007.17 1007.43 1007.76 1007.83 1007.96 1008.17 1008.07 1007.98 1008.14 1008.17 1008.29 1008.37 1008.57 1008.55
1005.63 1005.67 1005.68 1005.72 1005.86 1005.67 1005.64 1005.37 1005.15 1005.04 1004.80 1004.47 1004.08 1003.77 1003.52 1003.32 1002.96 1002.85 1003.76 1004.10 1004.10 1004.29 1004.05 1004.28 1004.41 1004.72 1004.60 1005.13 1005.68 1006.16 1006.69 1007.33 1007.36 1007.36 1007.16 1007.01 1006.76 1006.59 1006.64 1007.08 1007.39 1007.37 1008.10
1005.10 1004.99 1004.98 1004.94 1004.99 1005.00 1004.87 1004.54 1004.24 1003.94 1003.76 1003.51 1003.23 1002.88 1002.87 1002.70 1002.44 1001.94 1002.79 1003.38 1003.79 1004.01 1003.73 1004.13 1004.15 1004.29 1004.56 1004.83 1005.23 1006.06 1006.28 1006.40 1006.37 1006.20 1006.18 1005.95 1005.80 1005.72 1006.05 1006.22 1006.82 1007.32 1007.96
1004.71 1004.52 1004.24 1004.11 1004.20 1003.96 1003.65 1003.31 1003.17 1002.83 1002.61 1002.63 1002.43 1002.35 1002.27 1002.14 1002.59 1002.98 1003.14 1002.76 1002.49 1003.11 1003.50 1003.66 1003.70 1003.83 1004.09 1004.14 1004.34 1004.72 1005.05 1005.32 1005.22 1005.27 1005.34 1005.35 1005.29 1005.32 1005.51 1005.59 1005.98 1006.70 1007.27
1003.90 1003.67 1003.21 1003.00 1003.15 1003.19 1002.64 1002.35 1001.94 1002.02 1001.85 1001.68 1001.84 1002.16 1001.75 1001.74 1002.28 1002.57 1002.95 1002.80 1002.59 1002.08 1003.22 1002.71 1002.67 1002.72 1002.93 1003.07 1003.39 1003.62 1003.86 1004.03 1004.22 1004.53 1004.63 1004.89 1005.00 1004.85 1005.00 1005.18 1005.51 1005.95 1006.29
1003.23 1003.00 1002.71 1002.50 1002.31 1002.23 1002.15 1001.88 1001.45 1001.15 1000.88 1000.92 1000.94 1001.03 1001.33 1001.42 1001.77 1002.17 1002.35 1002.66 1002.71 1002.73 1002.40 1002.07 1002.04 1002.06 1001.92 1002.16 1002.47 1002.80 1003.04 1003.27 1003.61 1004.07 1004.28 1003.97 1004.08 1004.21 1004.49 1004.69 1004.92 1005.15 1005.43
1002.41 1002.08 1002.08 1001.94 1001.73 1001.56 1001.34 1001.17 1001.00 1000.78 1000.39 1000.47 1000.28 1000.39 1000.03 1000.53 1000.86 1001.75 1002.02 1002.17 1002.72 1002.56 1002.01 1001.43 1001.37 1001.11 1000.98 1001.07 1001.30 1001.86 1002.17 1002.60 1003.10 1003.48 1003.82 1004.63 1003.66 1003.20 1003.22 1003.76 1004.07 1004.38 1004.69
1001.66 1001.24 1000.77 1001.03 1000.88 1000.57 1000.51 1000.41 1000.10 999.98 999.79 999.52 999.35 999.16 999.23 1000.17 1000.42 1001.20 1001.41 1001.35 1000.89 1000.57 1000.48 1000.67 1000.79 1000.44 1000.17 1000.19 1000.45 1000.78 1000.95 1001.44 1001.82 1002.26 1002.49 1002.11 1002.99 1002.52 1002.67 1002.92 1003.08 1003.33 1003.59
1000.74 1000.58 1000.46 1000.24 999.96 999.87 999.90 999.84 999.66 999.40 999.14 998.87 998.66 998.68 999.09 1000.22 1000.27 1000.13 1000.28 1000.12 999.64 999.27 999.34 999.53 999.63 999.61 999.39 999.27 999.36 999.53 999.77 1000.34 1000.63 1000.81 1001.18 1001.47 1001.39 1001.72 1000.85 1001.83 1001.82 1002.20 1002.73
1000.05 999.74 999.45 999.37 999.20 999.10 999.19 999.26 999.24 998.99 998.58 998.20 998.07 997.74 997.98 998.59 998.60 998.57 998.26 998.53 998.42 998.15 997.98 998.01 997.95 998.09 998.14 998.15 998.05 998.27 998.55 998.74 999.13 999.58 999.83 1000.04 1000.40 1000.91 1000.99 1001.25 1001.50 1001.22 1001.56
1000.24 999.14 998.60 998.53 998.54 998.49 998.70 998.62 998.70 998.42 997.96 997.60 997.34 996.96 997.01 997.35 997.36 997.34 997.12 997.02 997.10 996.97 996.70 996.58 996.54 996.44 996.42 996.59 996.86 997.12 997.25 997.40 997.80 998.31 998.83 999.25 999.74 999.95 1000.14 1000.70 1001.14 999.79 1000.05
1000.21 998.92 998.06 997.83 997.89 997.90 997.75 997.87 997.46 997.24 996.82 996.48 996.45 996.20 995.85 995.75 995.70 995.80 995.55 995.32 995.31 995.57 995.83 996.04 995.96 995.84 995.71 995.58 995.56 995.82 995.97 996.14 996.37 996.67 997.10 997.73 998.33 998.73 999.29 999.57 999.34 1000.16 999.25
999.90 999.23 998.23 997.82 997.46 997.32 996.90 996.92 997.04 996.32 995.65 995.35 995.47 995.30 995.15 994.83 994.90 995.00 994.74 994.17 994.03 993.88 994.20 994.85 994.98 995.30 995.38 995.51 995.48 995.49 995.51 995.45 995.75 996.01 996.00 996.21 996.82 997.37 998.00 998.62 999.07 1000.03 999.63
999.68 998.97 998.10 997.82 997.57 997.45 997.24 996.91 996.37 996.26 995.76 995.10 994.86 994.63 994.04 994.14 993.94 994.12 993.47 993.48 993.86 994.66 993.96 993.78 993.90 994.05 994.26 994.53 994.84 995.04 995.05 994.99 995.26 995.53 995.66 995.59 995.97 996.46 997.17 997.75 998.25 999.08 999.14
1001.06 1000.56 1000.33 999.85 999.28 998.53 997.67 997.46 996.99 996.18 995.77 995.28 994.80 994.56 994.44 994.07 993.46 993.38 993.43 993.84 993.98 993.71 993.51 993.28 993.31 993.53 993.51 993.69 993.92 994.15 994.30 994.52 994.65 994.96 995.30 995.54 995.74 996.22 996.71 997.23 997.68 998.12 998.65
Wind_Speed
10 9 8 7 6 9 8 7 6 6 5 6 5 8 9 7 8 9 11 11 12 11 10 10 11 9 7 4 4 4 2 3 2 4 2 7 11 10 7 14 6 7 7
7 1 8 9 9 8 7 8 4 5 2 5 7 7 9 8 8 9 11 10 13 12 12 10 10 7 8 7 5 3 3 4 3 7 4 8 11 14 11 7 4 7 4
7 7 7 9 9 6 6 6 4 4 4 4 6 7 9 8 6 7 9 11 12 12 12 11 10 9 8 7 8 6 2 1 6 8 7 7 10 7 7 5 5 6 6
7 6 5 5 5 3 3 6 6 6 5 5 4 3 4 9 7 7 7 10 11 11 11 9 9 10 9 6 6 6 4 3 5 8 4 5 7 4 4 6 3 2 1
6 7 6 6 4 3 4 5 4 2 5 4 6 6 7 9 9 12 11 12 12 12 9 8 8 11 12 11 6 7 7 5 5 4 3 1 1 1 3 2 3 4 3
6 7 5 3 3 3 3 2 4 5 4 2 7 5 5 2 17 24 8 7 10 11 7 9 8 6 8 14 14 6 2 6 6 3 2 4 4 2 1 2 3 1 2
5 6 6 5 5 5 5 4 3 6 6 6 8 8 10 9 9 16 20 10 7 8 8 7 6 9 7 6 11 9 9 8 5 3 5 6 4 2 2 2 3 2 2
6 7 6 6 6 5 6 7 6 5 6 5 7 10 7 9 14 15 23 14 11 9 10 8 9 8 5 5 9 9 8 8 8 6 7 6 6 4 3 2 2 1 3
8 7 7 7 6 7 8 8 8 7 7 6 6 9 9 8 12 21 11 10 8 12 8 11 9 5 9 6 5 11 8 9 10 15 14 13 11 6 3 3 4 4 4
8 8 7 8 9 10 10 9 9 9 9 9 9 10 13 9 6 21 17 8 7 12 9 13 14 12 12 10 6 5 7 11 10 5 5 3 5 6 7 6 4 5 4
8 8 8 8 10 10 11 11 10 12 11 10 11 9 10 9 6 16 17 10 10 8 13 14 11 16 17 21 17 11 13 11 10 7 6 5 7 9 7 8 8 7 7
9 9 9 9 9 10 12 11 12 12 14 12 12 10 9 10 12 17 22 19 14 14 16 12 12 20 23 22 18 17 16 14 9 7 6 6 7 8 9 8 10 9 8
9 11 10 10 12 10 12 12 11 12 12 12 10 8 9 10 11 16 25 28 18 14 11 11 6 10 20 18 20 19 15 8 8 9 10 9 10 10 9 7 9 10 8
13 9 10 10 12 12 11 11 11 12 12 12 11 10 12 11 9 5 9 10 15 13 14 7 7 0 8 10 6 9 8 9 11 11 11 10 9 5 5 7 7 7 5
11 14 12 10 12 12 12 11 11 12 12 11 11 11 9 7 3 4 5 6 8 10 6 9 9 6 7 7 8 9 11 12 12 11 10 10 10 8 6 6 6 6 7
12 11 10 9 8 10 10 12 15 18 19 20 15 10 10 8 5 7 8 3 5 12 5 6 7 8 8 8 9 8 9 11 11 10 10 9 10 9 8 5 6 7 8
13 11 9 10 10 10 9 9 10 12 17 18 22 22 14 17 8 7 9 8 4 1 3 6 7 9 7 7 8 8 9 9 9 8 10 10 11 10 6 7 7 8 6
13 15 10 9 10 9 9 10 10 11 10 8 10 17 18 19 18 6 10 9 4 4 7 8 8 8 6 7 7 8 9 7 8 4 3 13 13 11 9 9 8 9 8
10 8 9 9 9 11 9 10 9 10 9 9 8 9 10 6 7 9 13 7 8 8 8 8 9 9 8 8 7 9 9 8 8 7 7 14 17 10 8 9 9 11 12
9 12 12 9 9 9 9 9 10 9 9 9 9 9 1 4 5 8 7 8 8 8 9 10 10 10 11 11 10 9 10 9 9 7 10 10 11 9 11 11 9 8 8
8 9 13 9 9 10 9 9 9 10 10 9 10 8 9 7 7 9 9 9 10 11 11 10 10 12 11 12 8 8 9 8 5 5 5 7 8 10 5 3 8 10 7
11 9 7 7 7 7 6 7 9 11 10 8 9 9 13 5 6 9 10 10 12 12 10 10 10 11 12 11 11 12 11 10 8 9 8 9 8 8 11 13 17 12 8
11 11 9 6 5 7 7 9 9 11 12 10 9 11 11 9 10 9 11 9 9 9 11 11 10 9 9 7 7 10 12 10 6 8 9 8 8 8 8 6 3 11 9
10 10 10 8 8 9 9 9 12 16 7 9 8 9 9 12 8 11 13 11 7 11 13 11 10 13 12 11 10 9 8 7 8 9 7 9 9 9 8 8 9 7 10
8 9 9 10 9 9 8 8 10 10 11 8 8 10 9 6 11 11 8 3 2 4 10 4 9 14 16 17 14 16 12 11 7 8 5 5 9 12 9 11 11 10 15
13 13 11 11 11 10 8 9 8 6 10 9 9 9 10 8 7 4 1 4 6 8 9 5 7 11 12 14 18 18 15 13 10 9 4 4 6 5 5 9 15 11 14
Wind_Direction
204 218 200 203 234 237 236 229 225 249 243 276 258 264 252 220 218 224 231 221 223 215 220 206 210 225 250 263 221 239 242 159 158 77 54 33 310 306 174 227 195 224 204
336 287 195 212 231 236 230 247 224 225 273 287 250 254 245 251 239 233 229 223 223 223 224 217 210 215 237 246 275 226 244 263 52 117 173 189 224 248 240 198 224 259 244
314 284 242 217 210 238 272 281 261 233 245 271 238 251 257 242 248 226 231 230 221 222 220 209 210 204 230 222 226 240 206 122 83 295 179 224 224 245 233 236 217 244 281
342 35 35 23 58 10 271 252 250 242 228 232 258 283 331 310 268 256 226 230 226 223 219 213 212 213 214 225 251 225 222 220 205 221 217 198 192 207 187 206 239 265 313
353 37 23 35 15 325 287 278 84 175 234 270 265 174 172 202 274 249 236 227 225 224 200 214 222 206 210 219 214 230 206 211 224 239 200 291 266 142 181 169 210 241 232
333 344 356 351 337 330 315 336 176 215 246 251 265 294 306 11 354 316 250 235 239 230 219 214 230 191 240 213 212 225 248 224 225 220 217 221 221 187 300 300 258 226 253
321 310 311 324 320 311 303 298 232 227 245 216 225 217 211 172 159 295 276 261 242 239 227 213 223 234 221 216 212 202 202 245 245 225 236 256 280 188 215 291 305 298 270
239 261 273 281 280 277 295 294 282 288 274 250 255 263 258 202 207 199 272 252 256 247 247 237 218 232 239 245 233 225 212 210 220 223 223 258 272 254 218 247 229 231 286
256 257 256 265 267 268 263 272 279 280 271 272 268 269 256 239 186 210 189 199 263 275 244 237 229 239 242 218 262 244 240 231 212 211 219 231 231 210 207 187 231 225 253
292 281 266 264 262 266 272 265 268 270 270 267 263 266 269 249 188 169 185 184 166 240 289 259 227 215 207 249 205 223 253 249 235 233 251 250 204 225 239 217 220 238 249
253 252 260 272 276 271 268 268 264 266 266 270 275 268 273 271 244 181 194 188 190 196 205 243 219 205 203 208 209 207 224 238 237 231 247 213 209 213 207 208 214 223 233
258 253 254 257 261 269 272 263 259 258 263 265 267 256 256 257 243 178 192 213 201 197 213 233 226 201 201 202 203 216 225 221 229 222 236 246 224 225 219 205 201 214 228
263 265 264 265 265 259 262 269 268 260 262 269 269 267 262 238 236 212 186 202 212 215 224 224 271 224 201 205 201 200 212 220 229 228 229 231 230 223 212 208 209 201 211
268 252 257 257 259 257 256 253 255 253 254 260 258 249 241 256 258 223 199 199 217 214 230 252 256 6 202 208 205 221 223 226 229 229 231 231 237 222 196 201 194 176 175
283 282 261 251 249 255 253 254 253 259 256 254 247 246 258 294 34 51 33 196 183 209 211 229 241 220 212 189 199 193 205 216 224 227 229 230 233 223 204 177 172 175 190
268 260 257 255 255 259 256 257 234 236 255 266 261 254 273 250 140 70 72 15 302 138 205 221 239 223 223 217 219 217 211 212 223 226 225 235 240 233 196 196 174 185 195
267 268 263 264 260 260 267 272 268 258 226 246 257 260 246 252 197 176 123 146 135 178 201 237 221 234 223 223 229 228 225 226 227 236 238 225 225 235 210 193 203 210 208
266 253 256 263 257 256 261 263 261 272 257 257 259 243 246 240 249 206 152 149 172 205 245 245 245 238 241 233 211 217 230 222 217 202 243 293 241 221 205 199 200 204 206
275 251 246 243 249 250 251 263 258 258 266 269 266 271 252 221 173 165 172 224 225 223 221 222 241 251 237 235 229 234 219 214 208 202 208 225 242 220 208 214 210 208 203
269 256 256 259 253 248 249 253 258 268 264 260 266 261 206 133 223 204 201 222 232 225 220 230 225 230 236 237 231 223 216 211 216 208 218 219 228 207 234 209 203 204 218
278 262 258 259 255 247 244 251 253 255 259 248 244 259 227 196 220 224 213 212 222 225 223 231 219 224 230 233 231 235 240 230 192 208 220 212 216 219 225 283 251 218 196
309 286 267 259 261 268 291 276 270 274 253 258 264 244 242 216 232 239 232 205 219 227 231 225 227 236 219 214 219 230 234 224 213 205 215 215 214 211 205 206 231 214 197
292 295 290 278 274 217 239 260 267 248 238 234 239 250 252 242 246 252 251 222 213 210 218 226 233 243 249 250 225 220 227 231 236 200 204 210 218 218 219 229 165 284 206
288 287 299 297 287 295 299 225 218 237 253 264 267 257 246 250 238 251 252 240 245 222 200 200 207 225 235 243 253 258 260 231 231 258 250 214 216 212 217 219 220 253 298
291 290 307 334 322 326 300 298 289 305 291 288 273 268 266 226 253 262 214 148 145 319 278 289 232 224 225 226 227 231 242 256 241 259 278 242 231 229 215 213 198 214 244
17 21 14 4 357 349 5 1 343 313 281 280 280 299 322 316 317 1 186 223 266 250 250 261 252 248 216 220 226 229 223 222 214 206 200 253 268 264 251 231 205 200 225